Theta_e
328 324 324 318 305 303 296 297 299 301 301 303 305 302 300 302 300 295 316 323 325 327 339 342 347 349 353 353 353 353 353 351 349 349 348 347 346 345 344 343 343 342 342 342 341 343 347 353 352
321 323 319 314 299 295 294 297 299 300 302 303 302 302 300 299 306 306 313 321 322 328 332 341 343 350 352 352 352 352 352 352 350 349 347 347 346 344 344 343 344 342 342 341 342 342 347 352 351
322 320 311 305 298 293 294 299 299 302 304 302 301 301 300 300 306 306 311 317 321 323 331 341 343 347 348 350 351 351 351 350 350 350 347 346 346 345 344 343 344 345 344 342 341 342 347 352 350
315 314 309 298 295 297 297 299 301 301 302 304 301 298 304 308 307 309 313 313 318 322 328 338 340 341 344 347 349 350 350 350 350 350 349 348 347 346 346 345 345 347 346 347 344 344 346 350 350
314 309 301 297 296 297 300 302 301 299 299 301 300 299 300 306 308 310 311 315 314 317 325 332 337 337 338 342 346 348 349 348 347 347 347 348 347 346 345 345 346 347 347 347 347 348 346 349 348
306 305 297 294 295 299 301 302 300 300 301 301 298 297 299 306 306 308 309 310 314 316 324 328 331 334 335 337 341 345 347 348 347 345 346 346 346 346 346 346 345 345 345 346 347 348 346 348 347
304 302 296 294 296 298 300 302 299 299 299 298 301 296 300 301 305 306 305 306 307 308 309 314 324 329 330 333 335 338 342 345 346 345 343 343 343 343 343 343 344 345 344 345 346 346 347 347 346
305 302 296 295 295 296 299 300 302 300 298 303 303 296 294 299 304 304 304 303 304 306 307 309 309 311 324 329 332 332 336 339 341 340 339 336 336 337 337 336 339 344 344 345 345 344 345 346 344
309 299 295 295 296 297 301 299 302 302 300 301 303 298 298 301 302 300 299 300 301 303 304 307 309 310 310 316 325 329 331 333 334 335 332 331 332 333 332 331 335 340 340 342 343 344 343 340 337
302 298 297 299 299 298 300 299 297 298 298 297 299 298 300 298 297 296 296 296 297 298 300 302 305 310 312 313 318 326 329 332 333 334 333 333 332 331 331 328 329 334 332 335 341 342 338 333 334
302 297 300 301 302 301 299 297 298 297 294 296 294 294 296 295 295 294 294 294 295 297 298 299 301 303 308 313 314 319 324 328 330 332 332 333 333 330 327 328 327 327 322 330 333 332 332 333 331
297 301 301 303 301 299 297 298 297 297 296 297 295 296 295 294 294 293 293 294 294 295 296 297 300 301 303 306 312 314 318 323 326 329 330 329 330 329 327 327 328 326 328 322 325 323 322 324 327
299 299 301 301 299 298 299 296 297 295 297 296 296 296 293 293 292 292 293 294 294 294 295 296 298 299 301 303 306 308 313 316 321 325 327 328 328 328 327 325 327 328 327 326 323 321 321 320 321
299 299 299 299 299 299 296 295 297 296 296 294 295 293 292 292 292 291 292 292 292 293 295 296 296 298 300 301 303 306 309 314 318 321 324 326 327 327 326 325 326 326 327 326 322 321 320 318 318
298 295 296 297 297 296 296 293 294 296 296 293 292 291 292 292 292 291 291 290 291 292 295 296 296 296 297 298 300 304 307 309 313 317 320 323 324 325 325 325 326 326 326 325 323 322 321 319 319
294 294 291 296 297 296 294 288 293 295 295 290 289 288 289 291 292 292 291 290 290 291 293 295 296 294 295 295 297 301 305 306 307 312 315 319 322 323 323 325 326 326 326 324 322 321 320 319 318
294 288 289 293 297 295 293 289 293 295 292 288 287 287 288 289 289 288 289 288 289 290 290 291 294 292 293 294 295 298 302 302 303 303 306 310 314 320 322 323 325 326 325 323 322 320 320 318 318
285 286 288 288 293 293 291 291 291 292 289 286 285 285 285 286 286 288 288 289 289 288 289 290 292 292 293 293 293 294 297 300 300 300 301 302 309 309 316 320 322 324 323 321 321 318 319 319 318
290 289 288 292 294 289 290 289 290 290 287 285 284 284 284 284 286 287 288 287 288 287 288 289 290 291 292 291 290 291 291 294 297 299 300 301 305 305 306 305 319 322 321 320 319 318 316 316 318
291 288 288 290 294 290 289 288 287 287 287 286 284 283 283 284 284 286 286 286 287 287 288 289 290 291 291 292 291 291 292 293 295 299 299 299 300 302 303 304 303 319 320 319 317 317 315 315 318
289 287 286 286 289 290 288 285 283 285 285 286 286 285 284 283 283 284 285 284 286 287 288 289 290 290 291 292 291 291 292 292 292 293 296 299 299 300 300 304 305 307 320 318 317 316 315 312 316
285 288 287 287 283 279 285 276 282 282 282 284 284 282 281 282 284 284 284 285 286 287 288 289 289 289 290 291 289 289 287 287 290 291 294 296 299 299 300 302 304 303 306 316 318 317 316 315 312
288 288 286 285 283 282 282 278 281 283 280 282 282 282 281 281 282 282 284 286 287 288 287 288 287 288 288 287 285 286 287 287 288 291 291 293 297 299 299 298 302 303 301 311 318 316 316 316 314
290 287 286 285 282 275 280 279 280 280 283 281 282 280 282 281 281 283 286 286 286 287 286 286 286 285 285 283 281 280 281 281 284 287 288 291 294 297 297 297 298 302 304 306 317 316 316 315 315
287 282 275 275 274 274 280 276 279 280 281 281 280 280 280 280 282 283 284 284 285 284 285 284 283 281 280 279 278 278 278 279 280 282 287 290 292 295 295 296 296 298 299 302 314 316 315 315 314
283 281 275 269 271 273 278 273 279 282 283 283 282 281 281 281 282 283 283 284 283 284 283 282 281 279 279 278 277 277 278 278 279 282 283 284 290 294 296 296 296 296 297 302 303 314 315 314 314
283 278 282 276 268 267 273 279 281 282 281 281 280 281 279 280 282 282 283 283 283 283 282 281 279 278 277 277 276 276 277 277 278 279 281 282 285 292 295 295 294 295 295 297 301 301 313 313 313
280 283 275 275 264 264 273 275 276 277 278 279 278 278 278 280 282 282 282 282 283 282 281 280 279 277 277 276 275 275 276 276 276 278 278 281 283 285 294 294 294 294 293 295 300 300 309 311 312
277 275 277 277 276 268 266 272 279 278 280 277 278 279 279 280 280 281 281 282 282 281 280 279 277 276 275 275 274 274 273 274 276 276 277 280 282 283 286 294 293 292 291 293 294 300 308 310 310
278 278 278 270 271 272 271 272 283 281 280 279 279 279 279 281 280 281 281 281 280 279 278 277 276 275 275 274 273 273 272 274 273 275 277 278 278 283 282 284 292 291 291 291 292 297 298 309 308
Wind_Speed
8 9 6 2 2 2 5 5 1 9 5 6 6 5 2 5 5 2 1 9 7 4 7 5 4 5 5 7 8 9 11 12 13 12 11 10 10 11 11 11 11 11 11 12 11 11 10 9 9
9 5 3 4 1 2 4 3 8 7 6 5 3 2 4 4 9 4 8 10 11 6 8 3 7 2 5 6 6 7 9 11 14 13 12 11 11 10 12 12 11 12 13 12 13 12 12 10 11
9 4 2 3 2 5 4 7 8 4 7 6 5 2 3 5 9 6 7 9 9 9 7 9 4 1 5 5 6 8 8 9 11 11 12 12 13 11 12 13 13 13 13 13 13 14 13 11 14
4 2 4 1 5 5 5 8 8 7 5 5 4 2 6 18 10 10 15 12 8 7 5 8 7 7 10 12 8 8 10 10 11 12 12 12 12 11 11 12 13 14 15 15 15 14 13 11 14
3 4 4 3 4 4 5 7 5 1 4 7 3 5 12 18 12 11 10 12 12 10 9 7 5 4 8 14 13 11 10 13 13 14 14 12 12 12 13 13 14 16 16 15 15 14 13 13 16
3 2 3 1 5 6 7 8 5 9 5 8 4 4 8 13 19 14 18 16 15 11 9 7 5 3 5 10 16 15 13 13 14 16 15 14 14 14 14 13 13 13 14 14 15 15 14 15 17
3 3 3 4 4 3 7 6 7 6 10 7 7 4 8 22 16 16 18 17 18 17 16 16 10 7 7 9 12 15 15 14 14 14 16 14 13 13 13 12 14 14 14 14 15 15 14 16 18
2 1 5 4 6 3 5 3 8 7 5 8 9 7 7 12 12 12 12 13 14 14 15 17 16 15 9 7 8 13 15 14 14 14 12 12 12 12 12 12 12 15 13 14 14 15 16 18 19
2 2 2 4 4 4 4 7 8 5 10 11 13 13 8 10 11 11 10 13 13 12 13 15 15 14 13 13 8 7 11 13 12 11 12 10 6 8 10 11 13 13 14 14 13 15 17 16 15
2 2 5 5 7 7 8 6 4 6 10 7 10 13 10 10 10 12 14 13 15 16 16 15 15 15 12 11 10 7 9 6 6 9 11 9 9 7 10 8 15 12 7 9 13 15 14 13 8
3 2 5 4 8 7 4 5 0 5 6 9 9 9 9 10 11 12 11 9 10 10 13 15 14 15 14 13 8 5 4 7 7 9 9 10 8 8 5 4 3 4 5 4 5 4 5 8 8
4 3 3 4 6 5 3 5 9 10 9 14 11 8 10 11 11 12 12 13 14 12 15 18 15 15 15 11 9 8 6 7 8 10 11 7 7 7 6 4 5 4 3 3 7 5 7 3 4
5 4 1 3 3 2 5 2 10 11 15 12 10 10 10 9 11 11 11 10 11 14 12 14 15 14 14 14 11 11 10 5 8 10 12 10 9 9 7 5 4 6 5 5 7 8 9 6 7
3 4 7 1 3 3 5 2 4 14 15 10 9 9 8 9 10 9 12 11 12 11 11 11 14 13 12 12 12 11 9 12 8 9 11 14 11 10 10 6 5 7 8 7 8 11 10 7 6
2 3 5 5 4 3 3 5 8 16 14 10 9 7 7 8 8 9 8 10 12 11 11 11 14 16 16 17 15 11 9 10 11 10 13 15 14 13 12 8 8 8 8 11 7 8 8 8 6
4 3 5 9 9 6 2 4 7 10 12 10 8 7 8 8 9 9 9 9 9 12 13 13 10 13 16 17 14 11 9 9 10 10 11 16 17 15 13 10 10 10 10 11 11 10 9 8 9
5 3 8 2 10 6 7 4 10 9 13 9 7 7 7 7 9 8 8 8 8 10 14 18 16 9 9 15 14 14 12 6 9 10 11 16 19 18 13 12 10 14 14 13 12 10 11 9 10
4 6 6 6 2 7 6 10 8 8 11 9 8 7 6 7 7 8 9 9 9 9 9 12 13 17 14 10 10 13 12 10 6 9 10 16 14 15 17 13 15 13 16 15 14 15 11 12 12
5 7 10 10 4 1 7 8 7 12 9 9 7 6 5 6 7 7 6 7 10 9 12 15 15 17 14 12 11 12 12 13 10 9 13 14 13 15 14 11 18 13 14 15 16 13 16 10 12
6 9 11 6 4 3 10 16 7 13 11 9 8 4 5 6 7 6 8 9 12 13 16 19 19 20 17 14 11 13 14 13 12 9 10 11 11 14 15 15 13 18 13 17 18 19 10 9 13
7 8 5 4 7 10 17 15 10 8 6 7 7 4 6 7 6 6 7 8 16 17 18 19 22 22 21 21 13 16 15 12 10 12 9 9 8 10 14 16 17 22 17 15 22 20 20 13 11
5 4 3 7 5 5 7 9 4 14 11 9 7 7 5 5 5 6 7 16 17 16 17 20 21 23 21 17 21 21 16 20 14 13 12 10 7 9 8 16 14 16 19 15 17 20 18 15 17
3 2 6 10 12 10 10 7 5 20 14 12 8 6 6 5 5 7 10 16 17 15 18 18 22 21 20 20 22 19 21 15 16 17 14 15 9 6 5 12 19 17 9 23 18 18 22 17 17
7 7 9 13 8 5 8 6 5 11 15 10 7 6 5 4 5 9 14 15 16 16 18 18 20 21 20 20 24 23 23 22 19 19 15 14 10 5 4 7 13 16 22 23 15 19 22 20 19
3 5 5 6 1 8 5 5 8 6 10 11 7 5 4 5 10 12 15 16 17 20 19 19 23 24 22 21 21 20 22 25 22 19 17 18 9 6 8 6 11 12 12 19 16 18 19 23 19
2 0 5 7 4 6 8 9 5 13 11 9 8 6 6 9 6 11 13 16 17 18 20 21 22 25 24 22 22 19 20 14 15 17 15 13 16 8 9 8 7 14 14 15 20 12 16 16 20
4 4 2 2 3 3 6 6 5 12 9 7 6 7 6 6 7 10 15 16 13 17 19 19 21 23 22 22 20 20 18 20 17 21 18 14 17 16 8 6 6 11 10 14 16 12 18 18 16
2 2 4 1 3 8 6 8 5 8 5 5 5 4 3 5 10 11 13 12 14 15 16 18 18 20 21 22 18 18 19 19 21 18 19 19 17 17 16 10 6 7 11 12 11 13 23 17 15
4 4 4 1 5 6 4 6 7 8 7 3 2 3 7 7 8 11 14 13 15 14 16 18 18 20 20 18 19 21 19 21 18 17 19 17 17 19 18 13 8 5 9 10 13 18 14 22 19
1 7 10 6 6 4 3 16 4 3 9 7 2 4 4 6 9 14 11 16 17 17 18 19 21 21 21 20 20 19 22 19 22 19 18 16 17 17 15 15 12 8 8 9 12 16 11 20 26
Wind_Direction
283 235 235 306 305 187 67 88 253 36 26 45 11 24 306 241 9 33 140 35 4 1 103 149 182 216 225 204 210 208 204 204 214 218 218 227 244 254 251 246 246 253 250 250 244 239 232 212 195
304 295 272 273 241 150 95 64 50 55 46 2 321 353 29 16 48 60 40 10 351 0 351 127 165 236 231 216 210 210 216 216 218 222 226 237 241 252 260 259 250 245 249 246 250 246 237 200 186
268 269 280 224 271 45 55 55 46 76 94 27 0 6 66 10 22 44 21 18 13 344 22 52 62 350 283 263 231 220 220 224 225 230 240 242 252 250 251 258 258 247 249 247 243 246 244 207 185
316 221 264 263 48 91 44 57 27 9 123 107 47 31 80 33 37 15 359 356 9 357 0 81 43 354 317 295 281 249 234 230 232 243 241 242 246 247 249 247 255 257 249 247 246 243 242 213 190
235 264 265 237 108 93 79 61 24 10 42 64 54 349 84 30 27 22 3 7 7 4 15 17 60 356 312 300 285 278 264 249 251 245 242 245 246 242 242 247 250 267 254 257 249 244 239 213 191
298 219 291 342 82 88 84 43 321 26 1 41 64 360 63 31 28 15 20 18 11 4 5 356 360 246 281 284 296 286 268 256 250 247 246 245 246 243 247 249 251 259 258 261 259 251 233 205 188
305 329 319 342 75 146 77 9 47 347 43 33 342 337 59 33 25 28 31 27 24 19 16 3 345 323 216 254 266 274 286 281 262 251 243 242 244 246 251 244 242 246 254 259 264 255 237 198 187
305 283 280 80 40 72 94 329 90 39 69 105 20 33 15 18 30 31 28 26 27 22 18 12 0 353 326 309 259 249 254 261 269 255 248 241 238 244 250 245 240 242 243 250 257 248 233 193 185
301 296 273 39 19 23 90 40 38 140 70 50 65 74 69 34 29 34 31 25 21 25 17 11 3 1 344 332 320 296 255 254 261 253 246 246 242 242 233 232 231 234 235 240 249 232 221 193 161
288 306 29 12 22 18 13 55 22 66 62 43 66 59 55 52 35 34 32 21 16 14 8 10 4 358 358 350 336 319 318 299 262 254 255 246 239 231 239 226 224 225 229 246 237 215 198 159 173
354 311 6 20 47 17 329 57 39 117 55 60 76 67 51 51 44 36 28 21 12 8 11 5 360 355 357 352 341 325 316 309 302 280 253 250 238 230 228 195 185 197 217 230 206 168 165 174 166
287 59 358 32 47 8 7 287 81 79 84 87 76 67 57 41 42 30 23 22 13 9 7 2 1 3 355 351 347 333 329 312 303 297 292 263 255 244 235 201 192 172 149 157 125 109 90 115 190
213 108 217 285 322 31 311 101 129 96 95 94 88 69 58 53 39 29 18 18 14 4 4 9 351 4 351 351 342 338 328 309 304 298 293 286 270 255 239 233 171 163 160 163 153 138 129 123 96
15 306 273 130 98 134 3 355 152 109 114 105 99 85 73 62 47 27 20 13 6 358 356 2 358 354 350 343 339 330 325 327 312 300 287 283 276 260 253 233 193 179 167 181 170 161 155 150 165
292 276 117 189 173 149 326 215 194 120 120 105 85 77 67 69 51 34 16 11 0 357 351 356 356 351 350 341 335 329 326 324 321 310 301 287 277 267 258 239 208 188 172 182 180 164 160 154 174
243 212 198 168 189 155 122 284 102 120 125 105 98 69 47 37 43 29 7 8 358 355 359 346 348 346 341 334 327 314 313 320 314 314 318 306 289 273 258 247 221 192 175 181 180 176 169 178 180
215 315 321 280 188 143 184 266 118 116 121 124 100 69 48 40 30 24 9 2 3 356 358 347 335 330 327 324 317 313 305 303 313 315 315 309 308 286 259 246 229 203 182 181 176 172 175 175 186
324 304 295 285 186 200 265 250 120 134 130 131 101 84 60 44 23 18 6 9 360 342 351 330 329 325 316 312 306 305 302 300 291 300 301 307 299 317 308 255 246 252 180 175 174 170 180 178 179
271 261 270 277 126 188 243 261 263 149 136 134 121 100 69 51 20 15 16 12 353 332 342 329 321 320 312 310 311 305 298 295 295 288 293 308 322 317 310 319 276 224 236 186 169 165 168 169 173
270 268 273 285 146 341 267 260 134 164 166 143 129 112 65 27 21 9 11 4 345 334 336 331 325 321 317 303 306 301 293 287 292 283 279 287 300 311 309 303 318 264 219 183 177 171 169 171 174
280 279 307 285 313 274 273 268 151 159 130 140 157 141 58 33 7 357 1 345 348 339 335 329 325 319 316 305 312 305 290 284 287 285 279 270 274 302 314 298 280 296 240 200 177 178 172 170 182
279 51 318 279 304 239 56 285 104 167 171 180 154 87 51 16 3 340 337 0 346 332 330 325 318 322 312 325 311 307 311 296 293 277 281 280 263 286 309 305 272 276 302 240 196 178 171 169 180
250 343 256 258 249 285 253 257 286 157 187 180 141 93 45 12 358 322 358 354 336 329 326 326 321 315 325 320 308 304 295 306 300 290 282 283 271 266 308 322 309 291 293 270 212 177 175 180 179
323 287 272 250 254 267 257 225 221 179 196 141 124 71 41 357 322 350 2 336 327 330 326 325 325 323 324 327 317 307 313 319 319 300 288 284 282 255 261 289 295 307 274 285 218 188 180 180 182
227 291 324 334 24 228 86 333 244 142 103 125 107 62 32 351 12 359 335 334 327 331 328 333 327 322 323 321 315 316 314 309 303 308 314 287 276 249 253 265 286 278 310 282 267 198 186 185 182
203 16 161 257 260 266 16 253 246 126 128 135 88 71 31 19 353 337 330 328 330 329 330 330 327 322 323 321 317 313 306 301 306 303 308 307 306 257 240 233 294 302 300 288 283 222 188 203 179
147 198 359 335 60 356 232 263 74 139 151 96 44 38 22 347 336 333 333 328 328 325 327 324 324 320 317 317 315 313 307 306 306 308 303 299 303 301 260 241 259 289 308 295 280 305 191 188 195
265 157 84 139 290 266 252 252 230 186 159 82 19 358 334 346 344 335 325 313 329 321 321 318 321 316 314 318 313 311 307 308 302 298 300 301 300 304 278 234 229 261 286 305 281 288 246 180 188
165 224 223 346 193 218 293 250 155 158 167 131 340 10 8 343 328 328 314 326 322 320 317 317 318 319 317 315 319 309 312 300 299 302 299 301 306 312 327 266 237 245 284 291 294 267 270 172 182
304 220 181 162 241 253 244 260 328 337 148 127 79 33 330 331 326 325 320 328 323 323 323 322 322 324 319 318 314 315 312 308 300 293 293 304 306 300 312 311 251 216 231 280 313 293 279 210 181